| time (UTC) | temp F | wind direction | speed knots | gust knots | rain 1hr in | rain 24hr in | rain mn in | humidity % | barometer mb |
| 20260906114045 | 69 | 54 | 2.6 | 2.6 | 0.00 | 0.00 | 0.00 | 98 | 1019.0 |
| 20260906113544 | 69 | 21 | 1.7 | 3.5 | 0.00 | 0.00 | 0.00 | 98 | 1018.8 |
| 20260906113039 | 69 | 22 | 1.7 | 4.3 | 0.00 | 0.00 | 0.00 | 98 | 1018.9 |
| 20260906112534 | 69 | 31 | 2.6 | 4.3 | 0.00 | 0.00 | 0.00 | 97 | 1018.9 |
| 20260906112031 | 70 | 24 | 2.6 | 3.5 | 0.00 | 0.00 | 0.00 | 97 | 1018.7 |
| 20260906111530 | 70 | 315 | 0.9 | 5.2 | 0.00 | 0.00 | 0.00 | 96 | 1018.6 |
| 20260906111026 | 70 | 18 | 2.6 | 2.6 | 0.00 | 0.00 | 0.00 | 96 | 1018.7 |
| 20260906110525 | 71 | 10 | 0.9 | 4.3 | 0.00 | 0.00 | 0.00 | 96 | 1018.6 |
| 20260906110025 | 71 | 82 | 1.7 | 3.5 | 0.00 | 0.00 | 0.00 | 96 | 1018.6 |
| 20260906105520 | 71 | 28 | 3.5 | 3.5 | 0.00 | 0.00 | 0.00 | 96 | 1018.3 |
| 20260906105016 | 71 | 315 | 0.0 | 3.5 | 0.00 | 0.00 | 0.00 | 96 | 1018.2 |
| 20260906104514 | 71 | 67 | 2.6 | 3.5 | 0.00 | 0.00 | 0.00 | 97 | 1018.5 |
| 20260906104009 | 71 | 29 | 2.6 | 4.3 | 0.00 | 0.00 | 0.00 | 97 | 1018.4 |
| 20260906103508 | 71 | 335 | 1.7 | 3.5 | 0.00 | 0.00 | 0.00 | 97 | 1018.3 |
| 20260906103003 | 71 | 332 | 1.7 | 6.1 | 0.00 | 0.00 | 0.00 | 97 | 1018.2 |
| 20260906102503 | 71 | 358 | 0.9 | 3.5 | 0.00 | 0.00 | 0.00 | 97 | 1018.0 |
| 20260906102002 | 71 | 342 | 1.7 | 3.5 | 0.00 | 0.00 | 0.00 | 98 | 1018.0 |
| 20260906101458 | 71 | 35 | 1.7 | 3.5 | 0.00 | 0.00 | 0.00 | 98 | 1018.0 |
| 20260906100953 | 71 | 330 | 1.7 | 4.3 | 0.00 | 0.00 | 0.00 | 98 | 1017.7 |
| 20260906100448 | 71 | 335 | 0.9 | 6.1 | 0.00 | 0.00 | 0.00 | 98 | 1017.8 |
| 20260906095948 | 71 | 353 | 3.5 | 4.3 | 0.00 | 0.00 | 0.00 | 98 | 1018.0 |
| 20260906095443 | 71 | 356 | 2.6 | 4.3 | 0.00 | 0.00 | 0.00 | 98 | 1018.0 |
| 20260906094938 | 71 | 338 | 2.6 | 4.3 | 0.00 | 0.00 | 0.00 | 98 | 1017.8 |
| 20260906094432 | 71 | 297 | 1.7 | 3.5 | 0.00 | 0.00 | 0.00 | 98 | 1017.7 |
| 20260906093928 | 71 | 321 | 3.5 | 4.3 | 0.00 | 0.00 | 0.00 | 98 | 1017.7 |
| 20260906093425 | 71 | 346 | 4.3 | 6.1 | 0.00 | 0.00 | 0.00 | 98 | 1017.7 |
| 20260906092924 | 71 | 332 | 0.9 | 4.3 | 0.00 | 0.00 | 0.00 | 98 | 1017.7 |
| 20260906092418 | 71 | 341 | 1.7 | 4.3 | 0.00 | 0.00 | 0.00 | 98 | 1017.8 |
| 20260906091914 | 71 | 313 | 0.9 | 4.3 | 0.00 | 0.00 | 0.00 | 98 | 1017.6 |
| 20260906091409 | 71 | 14 | 1.7 | 7.0 | 0.00 | 0.00 | 0.00 | 98 | 1017.7 |
| 20260906090906 | 71 | 327 | 4.3 | 5.2 | 0.00 | 0.00 | 0.00 | 98 | 1018.0 |
| 20260906090406 | 71 | 327 | 2.6 | 4.3 | 0.00 | 0.00 | 0.00 | 98 | 1018.0 |
| 20260906085901 | 71 | 345 | 2.6 | 4.3 | 0.00 | 0.00 | 0.00 | 98 | 1017.6 |
| 20260906085359 | 71 | 7 | 0.9 | 4.3 | 0.00 | 0.00 | 0.00 | 98 | 1017.6 |
| 20260906084854 | 71 | 348 | 4.3 | 5.2 | 0.00 | 0.00 | 0.00 | 98 | 1017.8 |
| 20260906084354 | 71 | 4 | 2.6 | 3.5 | 0.00 | 0.00 | 0.00 | 98 | 1018.0 |
| 20260906083848 | 71 | 301 | 2.6 | 3.5 | 0.00 | 0.00 | 0.00 | 98 | 1018.1 |
| 20260906083344 | 71 | 323 | 3.5 | 3.5 | 0.00 | 0.00 | 0.00 | 98 | 1017.8 |
| 20260906082843 | 71 | 9 | 2.6 | 3.5 | 0.00 | 0.00 | 0.00 | 97 | 1018.0 |
| 20260906082338 | 71 | 128 | 0.0 | 2.6 | 0.00 | 0.00 | 0.00 | 97 | 1018.2 |
| 20260906081834 | 71 | 330 | 2.6 | 2.6 | 0.00 | 0.00 | 0.00 | 97 | 1017.7 |
| 20260906081330 | 71 | 34 | 0.0 | 6.1 | 0.00 | 0.00 | 0.00 | 97 | 1018.1 |
| 20260906080826 | 71 | 53 | 0.9 | 3.5 | 0.00 | 0.00 | 0.00 | 97 | 1017.7 |
| 20260906080322 | 71 | 330 | 0.9 | 3.5 | 0.00 | 0.00 | 0.00 | 97 | 1018.0 |
| 20260906075821 | 71 | 281 | 4.3 | 5.2 | 0.00 | 0.00 | 0.00 | 97 | 1017.8 |
| 20260906075316 | 71 | 290 | 1.7 | 3.5 | 0.00 | 0.00 | 0.00 | 97 | 1018.1 |
| 20260906074812 | 70 | 316 | 0.9 | 3.5 | 0.00 | 0.00 | 0.00 | 97 | 1018.1 |
| 20260906074311 | 70 | 320 | 1.7 | 3.5 | 0.00 | 0.00 | 0.00 | 97 | 1018.2 |
| 20260906073810 | 70 | 321 | 1.7 | 3.5 | 0.00 | 0.00 | 0.00 | 97 | 1018.0 |
| 20260906073305 | 70 | 339 | 1.7 | 4.3 | 0.00 | 0.00 | 0.00 | 97 | 1017.6 |
| 20260906072802 | 70 | 11 | 0.9 | 3.5 | 0.00 | 0.00 | 0.00 | 97 | 1017.6 |
| 20260906072257 | 70 | 345 | 2.6 | 2.6 | 0.00 | 0.00 | 0.00 | 97 | 1017.8 |
| 20260906071753 | 70 | 4 | 0.9 | 5.2 | 0.00 | 0.00 | 0.00 | 97 | 1018.0 |
| 20260906071252 | 70 | 307 | 1.7 | 4.3 | 0.00 | 0.00 | 0.00 | 97 | 1017.8 |
| 20260906070744 | 70 | 333 | 3.5 | 3.5 | 0.00 | 0.00 | 0.00 | 97 | 1018.0 |
| 20260906070239 | 70 | 317 | 2.6 | 5.2 | 0.00 | 0.00 | 0.00 | 97 | 1018.0 |
| 20260906065738 | 70 | 294 | 1.7 | 2.6 | 0.00 | 0.00 | 0.00 | 97 | 1018.3 |
| 20260906065234 | 70 | 294 | 0.9 | 3.5 | 0.00 | 0.00 | 0.00 | 97 | 1018.3 |
| 20260906064730 | 70 | 13 | 2.6 | 3.5 | 0.00 | 0.00 | 0.00 | 97 | 1018.2 |
| 20260906064225 | 70 | 325 | 1.7 | 4.3 | 0.00 | 0.00 | 0.00 | 97 | 1018.4 |
| 20260906063720 | 70 | 358 | 2.6 | 4.3 | 0.00 | 0.00 | 0.00 | 97 | 1018.4 |
| 20260906063215 | 69 | 352 | 1.7 | 3.5 | 0.00 | 0.00 | 0.00 | 97 | 1018.0 |
| 20260906062711 | 69 | 23 | 0.9 | 5.2 | 0.00 | 0.00 | 0.00 | 97 | 1018.3 |
| 20260906062209 | 69 | 345 | 1.7 | 4.3 | 0.00 | 0.00 | 0.00 | 98 | 1018.3 |
| 20260906061706 | 69 | 336 | 3.5 | 3.5 | 0.00 | 0.00 | 0.00 | 98 | 1018.3 |
| 20260906061202 | 69 | 344 | 0.9 | 2.6 | 0.00 | 0.00 | 0.00 | 98 | 1018.4 |
| 20260906060657 | 69 | 346 | 1.7 | 3.5 | 0.00 | 0.00 | 0.00 | 98 | 1018.3 |
| 20260906060154 | 69 | 2 | 1.7 | 2.6 | 0.00 | 0.00 | 0.00 | 98 | 1018.4 |
| 20260906055649 | 69 | 5 | 0.9 | 3.5 | 0.00 | 0.00 | 0.00 | 97 | 1018.3 |
| 20260906055145 | 69 | 346 | 1.7 | 3.5 | 0.00 | 0.00 | 0.00 | 97 | 1018.3 |
| 20260906054640 | 69 | 350 | 1.7 | 2.6 | 0.00 | 0.00 | 0.00 | 97 | 1018.2 |
| 20260906054135 | 69 | 29 | 1.7 | 4.3 | 0.00 | 0.00 | 0.00 | 97 | 1018.1 |
| 20260906053631 | 69 | 331 | 1.7 | 3.5 | 0.00 | 0.00 | 0.00 | 97 | 1017.8 |
| 20260906053126 | 69 | 1 | 3.5 | 5.2 | 0.00 | 0.00 | 0.00 | 97 | 1018.0 |
| 20260906052622 | 69 | 318 | 1.7 | 3.5 | 0.00 | 0.00 | 0.00 | 97 | 1018.0 |
| 20260906052118 | 69 | 336 | 1.7 | 2.6 | 0.00 | 0.00 | 0.00 | 96 | 1018.0 |
| 20260906051614 | 69 | 0 | 0.0 | 2.6 | 0.00 | 0.00 | 0.00 | 96 | 1017.5 |
| 20260906051109 | 69 | 333 | 3.5 | 5.2 | 0.00 | 0.00 | 0.00 | 96 | 1017.6 |
| 20260906050605 | 70 | 352 | 3.5 | 4.3 | 0.00 | 0.00 | 0.00 | 96 | 1017.8 |
| 20260906050100 | 70 | 345 | 2.6 | 5.2 | 0.00 | 0.00 | 0.00 | 96 | 1017.8 |
| 20260906045557 | 70 | 29 | 2.6 | 7.0 | 0.00 | 0.00 | 0.00 | 96 | 1017.8 |
| 20260906045053 | 70 | 22 | 3.5 | 7.8 | 0.00 | 0.00 | 0.00 | 96 | 1017.6 |
| 20260906044549 | 70 | 321 | 3.5 | 5.2 | 0.00 | 0.00 | 0.00 | 97 | 1017.6 |
| 20260906044044 | 70 | 104 | 1.7 | 5.2 | 0.00 | 0.00 | 0.00 | 97 | 1017.5 |
| 20260906043539 | 70 | 2 | 2.6 | 3.5 | 0.00 | 0.00 | 0.00 | 97 | 1017.4 |
| 20260906043036 | 70 | 59 | 1.7 | 4.3 | 0.00 | 0.00 | 0.00 | 97 | 1017.6 |
| 20260906042534 | 70 | 129 | 3.5 | 3.5 | 0.00 | 0.00 | 0.00 | 97 | 1017.4 |
| 20260906042029 | 70 | 327 | 1.7 | 7.0 | 0.00 | 0.00 | 0.00 | 97 | 1017.4 |
| 20260906041526 | 71 | 325 | 3.5 | 4.3 | 0.00 | 0.00 | 0.00 | 97 | 1017.2 |
| 20260906041025 | 71 | 346 | 1.7 | 7.0 | 0.00 | 0.00 | 0.00 | 97 | 1017.3 |
| 20260906040520 | 71 | 335 | 3.5 | 5.2 | 0.00 | 0.00 | 0.00 | 97 | 1017.4 |
| 20260906040016 | 71 | 32 | 2.6 | 4.3 | 0.00 | 0.00 | 0.00 | 97 | 1017.1 |
| 20260906035505 | 71 | 271 | 1.7 | 4.3 | 0.00 | 0.00 | 0.00 | 97 | 1017.2 |
| 20260906035001 | 71 | 52 | 0.9 | 4.3 | 0.00 | 0.00 | 0.00 | 97 | 1017.2 |
| 20260906034500 | 71 | 14 | 1.7 | 4.3 | 0.00 | 0.00 | 0.00 | 97 | 1017.4 |
| 20260906033955 | 71 | 11 | 1.7 | 3.5 | 0.00 | 0.00 | 0.00 | 96 | 1017.2 |
| 20260906033450 | 71 | 355 | 1.7 | 4.3 | 0.00 | 0.00 | 0.00 | 96 | 1017.1 |
| 20260906032946 | 71 | 347 | 1.7 | 3.5 | 0.00 | 0.00 | 0.00 | 96 | 1017.3 |
| 20260906032443 | 72 | 1 | 1.7 | 5.2 | 0.00 | 0.00 | 0.00 | 96 | 1017.1 |
| 20260906031937 | 72 | 299 | 0.0 | 2.6 | 0.00 | 0.00 | 0.00 | 95 | 1017.2 |
| 20260906031432 | 72 | 336 | 1.7 | 2.6 | 0.00 | 0.00 | 0.00 | 95 | 1017.0 |
| 20260906030927 | 72 | 30 | 1.7 | 3.5 | 0.00 | 0.00 | 0.00 | 95 | 1017.2 |
| 20260906030422 | 72 | 328 | 1.7 | 3.5 | 0.00 | 0.00 | 0.00 | 94 | 1017.1 |
| 20260906025917 | 73 | 344 | 1.7 | 1.7 | 0.00 | 0.00 | 0.00 | 94 | 1017.2 |
| 20260906025411 | 73 | 266 | 0.0 | 4.3 | 0.00 | 0.00 | 0.00 | 94 | 1016.9 |
| 20260906024910 | 73 | 48 | 1.7 | 5.2 | 0.00 | 0.00 | 0.00 | 94 | 1017.1 |
| 20260906024409 | 73 | 8 | 0.0 | 4.3 | 0.00 | 0.00 | 0.00 | 93 | 1017.0 |
| 20260906023905 | 73 | 336 | 3.5 | 3.5 | 0.00 | 0.00 | 0.00 | 93 | 1016.9 |
| 20260906023401 | 74 | 296 | 0.0 | 3.5 | 0.00 | 0.00 | 0.00 | 92 | 1016.9 |
| 20260906022901 | 74 | 339 | 2.6 | 3.5 | 0.00 | 0.00 | 0.00 | 92 | 1016.7 |
| 20260906022355 | 74 | 40 | 1.7 | 5.2 | 0.00 | 0.00 | 0.00 | 91 | 1016.7 |
| 20260906021851 | 74 | 331 | 0.0 | 5.2 | 0.00 | 0.00 | 0.00 | 91 | 1016.6 |
| 20260906021350 | 75 | 30 | 1.7 | 3.5 | 0.00 | 0.00 | 0.00 | 91 | 1016.5 |
| 20260906020845 | 75 | 6 | 0.9 | 5.2 | 0.00 | 0.00 | 0.00 | 91 | 1016.6 |
| 20260906020345 | 75 | 307 | 4.3 | 6.1 | 0.00 | 0.00 | 0.00 | 91 | 1016.7 |
| 20260906015840 | 75 | 37 | 1.7 | 4.3 | 0.00 | 0.00 | 0.00 | 90 | 1016.6 |
| 20260906015338 | 76 | 344 | 0.9 | 3.5 | 0.00 | 0.00 | 0.00 | 90 | 1016.5 |
| 20260906014833 | 76 | 333 | 1.7 | 3.5 | 0.00 | 0.00 | 0.00 | 89 | 1016.5 |
| 20260906014328 | 77 | 323 | 1.7 | 3.5 | 0.00 | 0.00 | 0.00 | 88 | 1016.4 |
| 20260906013824 | 77 | 17 | 1.7 | 5.2 | 0.00 | 0.00 | 0.00 | 88 | 1016.5 |
| 20260906013319 | 77 | 343 | 6.1 | 7.0 | 0.00 | 0.00 | 0.00 | 88 | 1016.3 |
| 20260906012814 | 77 | 333 | 3.5 | 5.2 | 0.00 | 0.00 | 0.00 | 89 | 1016.4 |
| 20260906012309 | 77 | 323 | 5.2 | 5.2 | 0.00 | 0.00 | 0.00 | 89 | 1016.3 |
| 20260906011804 | 78 | 24 | 1.7 | 5.2 | 0.00 | 0.00 | 0.00 | 88 | 1016.2 |
| 20260906011303 | 78 | 351 | 3.5 | 5.2 | 0.00 | 0.00 | 0.00 | 88 | 1016.1 |
| 20260906010759 | 78 | 11 | 1.7 | 6.1 | 0.00 | 0.00 | 0.00 | 87 | 1016.0 |
| 20260906010256 | 78 | 33 | 3.5 | 7.0 | 0.00 | 0.00 | 0.00 | 87 | 1016.0 |
| 20260906005751 | 78 | 17 | 3.5 | 7.8 | 0.00 | 0.00 | 0.00 | 87 | 1015.8 |
| 20260906005250 | 79 | 331 | 2.6 | 4.3 | 0.00 | 0.00 | 0.00 | 87 | 1016.1 |
| 20260906004749 | 79 | 51 | 1.7 | 5.2 | 0.00 | 0.00 | 0.00 | 87 | 1015.8 |
| 20260906004244 | 80 | 11 | 1.7 | 6.1 | 0.00 | 0.00 | 0.00 | 86 | 1015.9 |
| 20260906003739 | 80 | 349 | 2.6 | 7.8 | 0.00 | 0.00 | 0.00 | 85 | 1015.8 |
| 20260906003235 | 80 | 339 | 3.5 | 4.3 | 0.00 | 0.00 | 0.00 | 85 | 1015.8 |
| 20260906002734 | 80 | 344 | 1.7 | 5.2 | 0.00 | 0.00 | 0.00 | 85 | 1015.7 |
| 20260906002229 | 81 | 328 | 0.0 | 3.5 | 0.00 | 0.00 | 0.00 | 84 | 1015.6 |
| 20260906001725 | 82 | 331 | 2.6 | 7.0 | 0.00 | 0.00 | 0.00 | 83 | 1015.6 |
| 20260906001220 | 82 | 325 | 2.6 | 6.1 | 0.00 | 0.00 | 0.00 | 83 | 1015.5 |
| 20260906000715 | 82 | 297 | 2.6 | 5.2 | 0.00 | 0.00 | 0.00 | 82 | 1015.5 |
| 20260906000212 | 83 | 327 | 0.9 | 4.3 | 0.00 | 0.00 | 0.00 | 81 | 1015.2 |
| 20260905235709 | 83 | 309 | 1.7 | 3.5 | 0.00 | 0.00 | 0.00 | 81 | 1015.5 |
| 20260905235204 | 84 | 13 | 2.6 | 4.3 | 0.00 | 0.00 | 0.00 | 80 | 1015.2 |
| 20260905234700 | 84 | 313 | 0.9 | 3.5 | 0.00 | 0.00 | 0.00 | 80 | 1015.3 |
| 20260905234155 | 84 | 343 | 3.5 | 4.3 | 0.00 | 0.00 | 0.00 | 79 | 1015.3 |
| 20260905233650 | 85 | 330 | 0.0 | 4.3 | 0.00 | 0.00 | 0.00 | 78 | 1015.2 |
| 20260905233149 | 86 | 350 | 1.7 | 5.2 | 0.00 | 0.00 | 0.00 | 77 | 1015.5 |
| 20260905232645 | 86 | 350 | 2.6 | 4.3 | 0.00 | 0.00 | 0.00 | 76 | 1015.3 |
| 20260905232140 | 86 | 344 | 3.5 | 6.1 | 0.00 | 0.00 | 0.00 | 75 | 1015.4 |
| 20260905231635 | 86 | 10 | 1.7 | 7.0 | 0.00 | 0.00 | 0.00 | 77 | 1015.1 |
| 20260905231131 | 86 | 346 | 4.3 | 5.2 | 0.00 | 0.00 | 0.00 | 77 | 1015.2 |
| 20260905230627 | 87 | 346 | 4.3 | 7.0 | 0.00 | 0.00 | 0.00 | 76 | 1015.1 |
| 20260905230125 | 87 | 301 | 0.9 | 4.3 | 0.00 | 0.00 | 0.00 | 75 | 1015.1 |
| 20260905225618 | 87 | 294 | 1.7 | 3.5 | 0.00 | 0.00 | 0.00 | 74 | 1015.1 |
| 20260905225113 | 87 | 307 | 4.3 | 5.2 | 0.00 | 0.00 | 0.00 | 73 | 1015.0 |
| 20260905224608 | 87 | 304 | 4.3 | 5.2 | 0.00 | 0.00 | 0.00 | 73 | 1014.8 |
| 20260905224107 | 88 | 0 | 1.7 | 4.3 | 0.00 | 0.00 | 0.00 | 74 | 1015.1 |
| 20260905223605 | 88 | 339 | 0.9 | 7.8 | 0.00 | 0.00 | 0.00 | 73 | 1015.3 |
| 20260905223101 | 88 | 33 | 1.7 | 4.3 | 0.00 | 0.00 | 0.00 | 74 | 1015.2 |
| 20260905222601 | 88 | 314 | 1.7 | 7.8 | 0.00 | 0.00 | 0.00 | 72 | 1015.1 |
| 20260905222056 | 88 | 350 | 4.3 | 7.8 | 0.00 | 0.00 | 0.00 | 72 | 1015.0 |
| 20260905221552 | 88 | 251 | 1.7 | 8.7 | 0.00 | 0.00 | 0.00 | 72 | 1015.3 |
| 20260905221048 | 88 | 316 | 5.2 | 6.1 | 0.00 | 0.00 | 0.00 | 71 | 1015.0 |
| 20260905220543 | 88 | 334 | 2.6 | 6.1 | 0.00 | 0.00 | 0.00 | 73 | 1015.0 |
| 20260905220040 | 89 | 310 | 2.6 | 6.1 | 0.00 | 0.00 | 0.00 | 72 | 1015.1 |
| 20260905215539 | 89 | 332 | 2.6 | 5.2 | 0.00 | 0.00 | 0.00 | 73 | 1015.2 |
| 20260905215035 | 89 | 327 | 5.2 | 7.8 | 0.00 | 0.00 | 0.00 | 71 | 1014.9 |
| 20260905214531 | 89 | 167 | 0.9 | 6.1 | 0.00 | 0.00 | 0.00 | 72 | 1015.0 |
| 20260905214026 | 89 | 342 | 4.3 | 7.8 | 0.00 | 0.00 | 0.00 | 71 | 1014.7 |
| 20260905213521 | 89 | 303 | 3.5 | 3.5 | 0.00 | 0.00 | 0.00 | 73 | 1014.8 |
| 20260905213017 | 90 | 304 | 1.7 | 6.1 | 0.00 | 0.00 | 0.00 | 71 | 1015.0 |
| 20260905212511 | 90 | 341 | 2.6 | 4.3 | 0.00 | 0.00 | 0.00 | 71 | 1014.9 |
| 20260905212010 | 89 | 335 | 1.7 | 5.2 | 0.00 | 0.00 | 0.00 | 72 | 1015.0 |
| 20260905211506 | 91 | 347 | 1.7 | 7.0 | 0.00 | 0.00 | 0.00 | 71 | 1015.0 |
| 20260905211002 | 91 | 328 | 4.3 | 7.8 | 0.00 | 0.00 | 0.00 | 70 | 1015.0 |
| 20260905210457 | 90 | 327 | 4.3 | 4.3 | 0.00 | 0.00 | 0.00 | 70 | 1015.1 |
| 20260905205956 | 89 | 297 | 1.7 | 4.3 | 0.00 | 0.00 | 0.00 | 73 | 1015.3 |
| 20260905205451 | 90 | 332 | 1.7 | 6.1 | 0.00 | 0.00 | 0.00 | 72 | 1015.2 |
| 20260905204950 | 91 | 6 | 2.6 | 5.2 | 0.00 | 0.00 | 0.00 | 69 | 1015.2 |
| 20260905203945 | 91 | 351 | 3.5 | 4.3 | 0.00 | 0.00 | 0.00 | 69 | 1015.3 |
| 20260905203441 | 92 | 348 | 3.5 | 7.0 | 0.00 | 0.00 | 0.00 | 66 | 1015.2 |
| 20260905202936 | 93 | 44 | 3.5 | 3.5 | 0.00 | 0.00 | 0.00 | 68 | 1015.2 |
| 20260905202431 | 92 | 329 | 1.7 | 2.6 | 0.00 | 0.00 | 0.00 | 68 | 1015.3 |
| 20260905201927 | 91 | 329 | 3.5 | 7.0 | 0.00 | 0.00 | 0.00 | 68 | 1015.0 |
| 20260905201422 | 91 | 343 | 1.7 | 7.8 | 0.00 | 0.00 | 0.00 | 69 | 1015.1 |
| 20260905200921 | 94 | 320 | 4.3 | 4.3 | 0.00 | 0.00 | 0.00 | 69 | 1015.2 |
| 20260905200418 | 93 | 269 | 0.9 | 2.6 | 0.00 | 0.00 | 0.00 | 69 | 1015.3 |
| 20260905195915 | 91 | 326 | 1.7 | 3.5 | 0.00 | 0.00 | 0.00 | 69 | 1015.4 |
| 20260905195411 | 91 | 345 | 1.7 | 4.3 | 0.00 | 0.00 | 0.00 | 70 | 1015.5 |
| 20260905194907 | 92 | 308 | 1.7 | 5.2 | 0.00 | 0.00 | 0.00 | 72 | 1015.4 |
| 20260905194405 | 92 | 310 | 1.7 | 3.5 | 0.00 | 0.00 | 0.00 | 69 | 1015.2 |
| 20260905193900 | 92 | 317 | 2.6 | 3.5 | 0.00 | 0.00 | 0.00 | 69 | 1015.3 |
| 20260905193355 | 91 | 342 | 4.3 | 5.2 | 0.00 | 0.00 | 0.00 | 71 | 1015.3 |
| 20260905192850 | 90 | 329 | 1.7 | 3.5 | 0.00 | 0.00 | 0.00 | 72 | 1015.3 |
| 20260905192346 | 91 | 330 | 2.6 | 7.0 | 0.00 | 0.00 | 0.00 | 72 | 1015.5 |
| 20260905191846 | 93 | 345 | 2.6 | 7.0 | 0.00 | 0.00 | 0.00 | 67 | 1015.6 |
| 20260905191345 | 93 | 328 | 5.2 | 5.2 | 0.00 | 0.00 | 0.00 | 67 | 1015.5 |
| 20260905190843 | 92 | 323 | 1.7 | 5.2 | 0.00 | 0.00 | 0.00 | 70 | 1015.7 |
| 20260905190337 | 93 | 6 | 2.6 | 3.5 | 0.00 | 0.00 | 0.00 | 69 | 1015.6 |
| 20260905185835 | 92 | 338 | 1.7 | 3.5 | 0.00 | 0.00 | 0.00 | 72 | 1015.4 |
| 20260905185331 | 91 | 305 | 1.7 | 3.5 | 0.00 | 0.00 | 0.00 | 72 | 1015.7 |
| 20260905184829 | 94 | 304 | 1.7 | 2.6 | 0.00 | 0.00 | 0.00 | 68 | 1015.7 |
| 20260905184330 | 94 | 288 | 0.0 | 2.6 | 0.00 | 0.00 | 0.00 | 67 | 1015.9 |
| 20260905183828 | 92 | 5 | 1.7 | 5.2 | 0.00 | 0.00 | 0.00 | 69 | 1016.0 |
| 20260905183324 | 91 | 332 | 3.5 | 4.3 | 0.00 | 0.00 | 0.00 | 71 | 1015.7 |
| 20260905182824 | 92 | 338 | 2.6 | 5.2 | 0.00 | 0.00 | 0.00 | 70 | 1015.8 |
| 20260905182323 | 93 | 346 | 2.6 | 4.3 | 0.00 | 0.00 | 0.00 | 67 | 1015.9 |
| 20260905181819 | 94 | 354 | 2.6 | 5.2 | 0.00 | 0.00 | 0.00 | 68 | 1015.8 |
| 20260905181313 | 95 | 340 | 5.2 | 5.2 | 0.00 | 0.00 | 0.00 | 65 | 1016.1 |
| 20260905180812 | 95 | 315 | 1.7 | 4.3 | 0.00 | 0.00 | 0.00 | 66 | 1016.0 |
| 20260905180307 | 94 | 1 | 2.6 | 4.3 | 0.00 | 0.00 | 0.00 | 64 | 1016.0 |
| 20260905175803 | 95 | 302 | 2.6 | 5.2 | 0.00 | 0.00 | 0.00 | 67 | 1016.0 |
| 20260905175257 | 94 | 332 | 1.7 | 2.6 | 0.00 | 0.00 | 0.00 | 64 | 1016.1 |
| 20260905174752 | 93 | 244 | 1.7 | 5.2 | 0.00 | 0.00 | 0.00 | 68 | 1016.2 |
| 20260905174248 | 93 | 341 | 3.5 | 5.2 | 0.00 | 0.00 | 0.00 | 66 | 1016.1 |
| 20260905173744 | 93 | 331 | 5.2 | 9.6 | 0.00 | 0.00 | 0.00 | 67 | 1016.2 |
| 20260905173239 | 94 | 269 | 0.0 | 3.5 | 0.00 | 0.00 | 0.00 | 68 | 1016.2 |
| 20260905172733 | 94 | 320 | 2.6 | 4.3 | 0.00 | 0.00 | 0.00 | 67 | 1016.3 |
| 20260905172232 | 94 | 321 | 5.2 | 6.1 | 0.00 | 0.00 | 0.00 | 66 | 1016.2 |
| 20260905171729 | 93 | 284 | 0.9 | 2.6 | 0.00 | 0.00 | 0.00 | 68 | 1016.2 |
| 20260905171224 | 95 | 344 | 2.6 | 4.3 | 0.00 | 0.00 | 0.00 | 64 | 1016.1 |
| 20260905170716 | 96 | 309 | 3.5 | 4.3 | 0.00 | 0.00 | 0.00 | 63 | 1016.2 |
| 20260905170215 | 95 | 257 | 1.7 | 2.6 | 0.00 | 0.00 | 0.00 | 65 | 1016.4 |
| 20260905165710 | 94 | 0 | 2.6 | 3.5 | 0.00 | 0.00 | 0.00 | 63 | 1016.2 |
| 20260905165205 | 94 | 344 | 5.2 | 6.1 | 0.00 | 0.00 | 0.00 | 65 | 1016.3 |
| 20260905164659 | 94 | 313 | 1.7 | 3.5 | 0.00 | 0.00 | 0.00 | 64 | 1016.4 |
| 20260905164159 | 95 | 310 | 1.7 | 3.5 | 0.00 | 0.00 | 0.00 | 65 | 1016.3 |
| 20260905163655 | 94 | 257 | 1.7 | 2.6 | 0.00 | 0.00 | 0.00 | 64 | 1016.7 |
| 20260905163151 | 94 | 359 | 5.2 | 5.2 | 0.00 | 0.00 | 0.00 | 62 | 1016.3 |
| 20260905162647 | 93 | 333 | 1.7 | 5.2 | 0.00 | 0.00 | 0.00 | 65 | 1016.3 |
| 20260905162147 | 93 | 261 | 2.6 | 2.6 | 0.00 | 0.00 | 0.00 | 65 | 1016.3 |
| 20260905161647 | 92 | 250 | 0.9 | 3.5 | 0.00 | 0.00 | 0.00 | 64 | 1016.3 |
| 20260905161144 | 94 | 335 | 1.7 | 2.6 | 0.00 | 0.00 | 0.00 | 65 | 1016.5 |
| 20260905160639 | 93 | 238 | 1.7 | 3.5 | 0.00 | 0.00 | 0.00 | 64 | 1016.4 |
| 20260905160132 | 95 | 233 | 1.7 | 1.7 | 0.00 | 0.00 | 0.00 | 62 | 1016.3 |
| 20260905155627 | 94 | 339 | 0.9 | 2.6 | 0.00 | 0.00 | 0.00 | 64 | 1016.2 |
| 20260905155125 | 94 | 251 | 1.7 | 2.6 | 0.00 | 0.00 | 0.00 | 64 | 1016.2 |
| 20260905154620 | 93 | 246 | 1.7 | 5.2 | 0.00 | 0.00 | 0.00 | 64 | 1016.2 |
| 20260905154116 | 93 | 316 | 1.7 | 3.5 | 0.00 | 0.00 | 0.00 | 66 | 1016.2 |
| 20260905153612 | 93 | 310 | 2.6 | 5.2 | 0.00 | 0.00 | 0.00 | 64 | 1016.4 |
| 20260905153107 | 92 | 289 | 1.7 | 4.3 | 0.00 | 0.00 | 0.00 | 68 | 1016.1 |
| 20260905152602 | 92 | 255 | 0.9 | 4.3 | 0.00 | 0.00 | 0.00 | 68 | 1016.2 |
| 20260905152056 | 92 | 249 | 0.0 | 1.7 | 0.00 | 0.00 | 0.00 | 67 | 1016.3 |
| 20260905151551 | 92 | 239 | 3.5 | 4.3 | 0.00 | 0.00 | 0.00 | 66 | 1016.2 |
| 20260905151047 | 91 | 234 | 3.5 | 5.2 | 0.00 | 0.00 | 0.00 | 68 | 1016.2 |
| 20260905150542 | 90 | 251 | 2.6 | 5.2 | 0.00 | 0.00 | 0.00 | 70 | 1016.4 |
| 20260905150040 | 90 | 230 | 4.3 | 6.1 | 0.00 | 0.00 | 0.00 | 69 | 1016.1 |
| 20260905145533 | 90 | 213 | 0.9 | 2.6 | 0.00 | 0.00 | 0.00 | 71 | 1016.2 |
| 20260905145033 | 89 | 221 | 0.0 | 2.6 | 0.00 | 0.00 | 0.00 | 75 | 1016.1 |
| 20260905144528 | 89 | 280 | 1.7 | 3.5 | 0.00 | 0.00 | 0.00 | 74 | 1016.1 |
| 20260905144027 | 89 | 233 | 2.6 | 2.6 | 0.00 | 0.00 | 0.00 | 75 | 1015.9 |
| 20260905143526 | 89 | 228 | 2.6 | 3.5 | 0.00 | 0.00 | 0.00 | 73 | 1015.9 |
| 20260905143021 | 88 | 275 | 1.7 | 3.5 | 0.00 | 0.00 | 0.00 | 76 | 1015.9 |
| 20260905142520 | 87 | 240 | 1.7 | 3.5 | 0.00 | 0.00 | 0.00 | 77 | 1015.9 |
| 20260905142015 | 87 | 209 | 2.6 | 4.3 | 0.00 | 0.00 | 0.00 | 77 | 1016.0 |
| 20260905141515 | 87 | 240 | 1.7 | 2.6 | 0.00 | 0.00 | 0.00 | 79 | 1016.0 |
| 20260905141012 | 86 | 232 | 2.6 | 3.5 | 0.00 | 0.00 | 0.00 | 79 | 1015.9 |
| 20260905140506 | 85 | 238 | 1.7 | 3.5 | 0.00 | 0.00 | 0.00 | 80 | 1016.2 |
| 20260905140005 | 85 | 235 | 1.7 | 3.5 | 0.00 | 0.00 | 0.00 | 81 | 1016.0 |
| 20260905135501 | 84 | 237 | 2.6 | 2.6 | 0.00 | 0.00 | 0.00 | 82 | 1016.1 |
| 20260905134956 | 83 | 240 | 2.6 | 3.5 | 0.00 | 0.00 | 0.00 | 83 | 1016.1 |
| 20260905134455 | 83 | 237 | 2.6 | 2.6 | 0.00 | 0.00 | 0.00 | 85 | 1016.0 |
| 20260905133954 | 82 | 242 | 1.7 | 3.5 | 0.00 | 0.00 | 0.00 | 85 | 1016.3 |
| 20260905133450 | 83 | 253 | 1.7 | 2.6 | 0.00 | 0.00 | 0.00 | 84 | 1016.2 |
| 20260905132943 | 82 | 227 | 2.6 | 3.5 | 0.00 | 0.00 | 0.00 | 84 | 1016.0 |
| 20260905132438 | 82 | 233 | 2.6 | 3.5 | 0.00 | 0.00 | 0.00 | 85 | 1015.9 |
| 20260905131934 | 81 | 257 | 1.7 | 3.5 | 0.00 | 0.00 | 0.00 | 86 | 1016.1 |
| 20260905131430 | 81 | 234 | 3.5 | 4.3 | 0.00 | 0.00 | 0.00 | 85 | 1015.8 |
| 20260905130930 | 80 | 255 | 1.7 | 3.5 | 0.00 | 0.00 | 0.00 | 88 | 1016.1 |
| 20260905130429 | 80 | 239 | 1.7 | 3.5 | 0.00 | 0.00 | 0.00 | 88 | 1015.8 |
| 20260905125929 | 79 | 241 | 2.6 | 2.6 | 0.00 | 0.00 | 0.00 | 90 | 1015.7 |
| 20260905125424 | 79 | 249 | 3.5 | 3.5 | 0.00 | 0.00 | 0.00 | 90 | 1016.0 |
| 20260905124919 | 79 | 231 | 1.7 | 3.5 | 0.00 | 0.00 | 0.00 | 91 | 1015.9 |
| 20260905124416 | 79 | 265 | 0.9 | 2.6 | 0.00 | 0.00 | 0.00 | 90 | 1015.9 |
| 20260905123916 | 78 | 245 | 1.7 | 2.6 | 0.00 | 0.00 | 0.00 | 91 | 1015.7 |
| 20260905123413 | 78 | 285 | 1.7 | 3.5 | 0.00 | 0.00 | 0.00 | 92 | 1015.7 |
| 20260905122908 | 78 | 239 | 1.7 | 2.6 | 0.00 | 0.00 | 0.00 | 92 | 1015.6 |
| 20260905122407 | 77 | 243 | 1.7 | 2.6 | 0.00 | 0.00 | 0.00 | 93 | 1015.5 |
| 20260905121903 | 76 | 239 | 1.7 | 2.6 | 0.00 | 0.00 | 0.00 | 95 | 1015.6 |
| 20260905121358 | 76 | 265 | 1.7 | 4.3 | 0.00 | 0.00 | 0.00 | 97 | 1015.5 |
| 20260905120858 | 75 | 241 | 1.7 | 1.7 | 0.00 | 0.00 | 0.00 | 99 | 1015.4 |
| 20260905120357 | 74 | 268 | 0.9 | 1.7 | 0.00 | 0.00 | 0.00 | 99 | 1015.5 |
| 20260905115853 | 73 | 309 | 0.0 | 0.9 | 0.00 | 0.00 | 0.00 | 99 | 1015.3 |
| 20260905115352 | 73 | 317 | 0.0 | 0.9 | 0.00 | 0.00 | 0.00 | 99 | 1015.3 |
| 20260905114847 | 73 | 30 | 0.0 | 0.9 | 0.00 | 0.00 | 0.00 | 99 | 1015.2 |